• în România
  • Lista ţărilor
  • Pe 7 zile
  • Temperatura apei
  • Hartă satelitară
  • Meteo pe hartă
  • Widget-uri
  • user-avatar
    Intrare

    Meteo pe oră la Darwin

    Astăzi, 18 August, Vineri

    Timp Temperatura Precipitaţii Vânt Presiune Umiditate
    00:00 +27°C° 0 mm 1 m/s 758 mmHg 82%
    01:00 +27°C° 0 mm 1 m/s 758 mmHg 83%
    02:00 +26°C° 0 mm 1 m/s 758 mmHg 84%
    03:00 +26°C° 0 mm 1 m/s 758 mmHg 86%
    04:00 +26°C° 0 mm 2 m/s 758 mmHg 87%
    05:00 +25°C° 0 mm 2 m/s 759 mmHg 88%
    06:00 +25°C° 0 mm 2 m/s 759 mmHg 89%
    07:00 +27°C° 0 mm 3 m/s 759 mmHg 78%
    08:00 +29°C° 0 mm 3 m/s 759 mmHg 67%
    09:00 +31°C° 0 mm 3 m/s 760 mmHg 58%
    10:00 +34°C° 0 mm 3 m/s 759 mmHg 48%
    11:00 +36°C° 0 mm 3 m/s 759 mmHg 39%
    12:00 +38°C° 0 mm 4 m/s 759 mmHg 30%
    13:00 +40°C° 0 mm 4 m/s 758 mmHg 27%
    14:00 +40°C° 0 mm 4 m/s 757 mmHg 24%
    15:00 +39°C° 0 mm 3 m/s 757 mmHg 24%
    16:00 +37°C° 0 mm 3 m/s 757 mmHg 29%
    17:00 +35°C° 0 mm 3 m/s 757 mmHg 33%
    18:00 +34°C° 0 mm 3 m/s 757 mmHg 38%
    19:00 +31°C° 0 mm 3 m/s 758 mmHg 47%
    20:00 +29°C° 0 mm 3 m/s 758 mmHg 57%
    21:00 +28°C° 0 mm 2 m/s 759 mmHg 67%
    22:00 +27°C° 0 mm 2 m/s 759 mmHg 71%
    23:00 +27°C° 0 mm 2 m/s 760 mmHg 75%

    Mâine, 19 August, Sâmbătă

    Timp Temperatura Precipitaţii Vânt Presiune Umiditate
    00:00 +26°C° 0 mm 2 m/s 760 mmHg 79%
    01:00 +26°C° 0 mm 2 m/s 760 mmHg 80%
    02:00 +26°C° 0 mm 2 m/s 760 mmHg 81%
    03:00 +25°C° 0 mm 2 m/s 760 mmHg 82%
    04:00 +25°C° 0 mm 2 m/s 760 mmHg 84%
    05:00 +24°C° 0 mm 2 m/s 760 mmHg 87%
    06:00 +24°C° 0 mm 2 m/s 760 mmHg 89%
    07:00 +26°C° 0 mm 2 m/s 760 mmHg 75%
    08:00 +28°C° 0 mm 3 m/s 760 mmHg 60%
    09:00 +31°C° 0 mm 3 m/s 761 mmHg 45%
    10:00 +34°C° 0 mm 4 m/s 760 mmHg 35%
    11:00 +37°C° 0 mm 4 m/s 760 mmHg 26%
    12:00 +40°C° 0 mm 5 m/s 759 mmHg 16%
    13:00 +41°C° 0 mm 5 m/s 759 mmHg 17%
    14:00 +41°C° 0 mm 5 m/s 758 mmHg 17%
    15:00 +41°C° 0 mm 5 m/s 757 mmHg 18%
    16:00 +39°C° 0 mm 5 m/s 757 mmHg 22%
    17:00 +37°C° 0 mm 4 m/s 757 mmHg 26%
    18:00 +35°C° 0 mm 4 m/s 757 mmHg 30%
    19:00 +33°C° 0 mm 3 m/s 758 mmHg 39%
    20:00 +30°C° 0 mm 2 m/s 759 mmHg 48%
    21:00 +28°C° 0 mm 2 m/s 759 mmHg 57%
    22:00 +28°C° 0 mm 1 m/s 759 mmHg 60%
    23:00 +27°C° 0 mm 1 m/s 760 mmHg 62%

    Poimâine, 20 August, Duminică

    Timp Temperatura Precipitaţii Vânt Presiune Umiditate
    00:00 +27°C° 0 mm 1 m/s 760 mmHg 64%
    01:00 +27°C° 0 mm 1 m/s 760 mmHg 66%
    02:00 +26°C° 0 mm 1 m/s 760 mmHg 68%
    03:00 +26°C° 0 mm 1 m/s 760 mmHg 69%
    04:00 +25°C° 0 mm 2 m/s 760 mmHg 70%
    05:00 +25°C° 0 mm 2 m/s 760 mmHg 71%
    06:00 +25°C° 0 mm 3 m/s 760 mmHg 72%
    07:00 +27°C° 0 mm 3 m/s 760 mmHg 60%
    08:00 +29°C° 0 mm 3 m/s 761 mmHg 47%
    09:00 +32°C° 0 mm 4 m/s 761 mmHg 35%
    10:00 +34°C° 0 mm 4 m/s 761 mmHg 30%
    11:00 +36°C° 0 mm 5 m/s 760 mmHg 25%
    12:00 +39°C° 0 mm 5 m/s 760 mmHg 20%
    13:00 +39°C° 0 mm 5 m/s 759 mmHg 20%
    14:00 +40°C° 0 mm 4 m/s 758 mmHg 19%
    15:00 +40°C° 0 mm 4 m/s 757 mmHg 19%
    16:00 +38°C° 0 mm 4 m/s 757 mmHg 22%
    17:00 +36°C° 0 mm 3 m/s 757 mmHg 25%
    18:00 +35°C° 0 mm 3 m/s 757 mmHg 28%
    19:00 +33°C° 0 mm 3 m/s 758 mmHg 35%
    20:00 +30°C° 0 mm 3 m/s 758 mmHg 42%
    21:00 +28°C° 0 mm 3 m/s 759 mmHg 48%
    22:00 +27°C° 0 mm 2 m/s 759 mmHg 54%
    23:00 +27°C° 0 mm 2 m/s 759 mmHg 59%

    21 August, Luni

    Timp Temperatura Precipitaţii Vânt Presiune Umiditate
    00:00 +26°C° 0 mm 1 m/s 759 mmHg 65%
    01:00 +26°C° 0 mm 2 m/s 759 mmHg 66%
    02:00 +26°C° 0 mm 2 m/s 759 mmHg 68%
    03:00 +25°C° 0 mm 2 m/s 759 mmHg 69%
    04:00 +25°C° 0 mm 2 m/s 759 mmHg 72%
    05:00 +25°C° 0 mm 3 m/s 759 mmHg 74%
    06:00 +25°C° 0 mm 3 m/s 759 mmHg 76%
    07:00 +26°C° 0 mm 3 m/s 760 mmHg 67%
    08:00 +28°C° 0 mm 4 m/s 760 mmHg 58%
    09:00 +30°C° 0 mm 4 m/s 760 mmHg 49%
    10:00 +33°C° 0 mm 4 m/s 760 mmHg 40%
    11:00 +35°C° 0 mm 4 m/s 759 mmHg 31%
    12:00 +37°C° 0 mm 4 m/s 759 mmHg 21%
    13:00 +39°C° 0 mm 5 m/s 758 mmHg 20%
    14:00 +39°C° 0 mm 5 m/s 757 mmHg 20%
    15:00 +40°C° 0 mm 5 m/s 756 mmHg 19%
    16:00 +37°C° 0 mm 5 m/s 756 mmHg 24%
    17:00 +35°C° 0 mm 5 m/s 757 mmHg 29%
    18:00 +34°C° 0 mm 4 m/s 757 mmHg 34%
    19:00 +32°C° 0 mm 4 m/s 757 mmHg 43%
    20:00 +30°C° 0 mm 4 m/s 758 mmHg 52%
    21:00 +28°C° 0 mm 4 m/s 759 mmHg 60%
    22:00 +28°C° 0 mm 3 m/s 759 mmHg 63%
    23:00 +27°C° 0 mm 3 m/s 759 mmHg 66%

    22 August, Marţi

    Timp Temperatura Precipitaţii Vânt Presiune Umiditate
    00:00 +27°C° 0 mm 3 m/s 759 mmHg 69%
    01:00 +26°C° 0 mm 3 m/s 759 mmHg 72%
    02:00 +26°C° 0 mm 3 m/s 759 mmHg 74%
    03:00 +26°C° 0 mm 3 m/s 759 mmHg 76%
    04:00 +25°C° 0,1 mm 3 m/s 759 mmHg 79%
    05:00 +25°C° 0,1 mm 3 m/s 759 mmHg 81%
    06:00 +23°C° 0,1 mm 4 m/s 759 mmHg 84%
    07:00 +26°C° 0 mm 4 m/s 760 mmHg 71%
    08:00 +28°C° 0 mm 4 m/s 760 mmHg 58%
    09:00 +30°C° 0 mm 5 m/s 761 mmHg 46%
    10:00 +33°C° 0 mm 5 m/s 760 mmHg 37%
    11:00 +35°C° 0 mm 5 m/s 760 mmHg 27%
    12:00 +38°C° 0 mm 6 m/s 759 mmHg 18%
    13:00 +39°C° 0 mm 6 m/s 759 mmHg 19%
    14:00 +39°C° 0 mm 6 m/s 758 mmHg 20%
    15:00 +39°C° 0 mm 6 m/s 758 mmHg 21%
    16:00 +38°C° 0 mm 6 m/s 758 mmHg 28%
    17:00 +35°C° 0 mm 5 m/s 758 mmHg 34%
    18:00 +33°C° 0 mm 5 m/s 758 mmHg 40%
    19:00 +32°C° 0 mm 5 m/s 759 mmHg 48%
    20:00 +30°C° 0 mm 5 m/s 759 mmHg 55%
    21:00 +28°C° 0 mm 4 m/s 760 mmHg 63%
    22:00 +28°C° 0 mm 4 m/s 760 mmHg 66%
    23:00 +27°C° 0 mm 4 m/s 760 mmHg 68%

    23 August, Miercuri

    Timp Temperatura Precipitaţii Vânt Presiune Umiditate
    00:00 +27°C° 0 mm 4 m/s 760 mmHg 71%
    01:00 +26°C° 0 mm 4 m/s 760 mmHg 73%
    02:00 +26°C° 0 mm 4 m/s 760 mmHg 75%
    03:00 +25°C° 0 mm 4 m/s 759 mmHg 77%
    04:00 +25°C° 0 mm 4 m/s 760 mmHg 76%
    05:00 +23°C° 0 mm 4 m/s 760 mmHg 76%
    06:00 +22°C° 0 mm 4 m/s 760 mmHg 76%
    07:00 +26°C° 0 mm 5 m/s 761 mmHg 59%
    08:00 +28°C° 0 mm 5 m/s 761 mmHg 43%
    09:00 +32°C° 0 mm 6 m/s 761 mmHg 26%
    10:00 +34°C° 0 mm 6 m/s 761 mmHg 23%
    11:00 +36°C° 0 mm 6 m/s 760 mmHg 19%
    12:00 +39°C° 0 mm 7 m/s 759 mmHg 16%
    13:00 +40°C° 0 mm 6 m/s 759 mmHg 17%
    14:00 +40°C° 0 mm 6 m/s 758 mmHg 19%
    15:00 +41°C° 0 mm 6 m/s 757 mmHg 20%
    16:00 +39°C° 0 mm 5 m/s 757 mmHg 25%
    17:00 +36°C° 0 mm 5 m/s 758 mmHg 29%
    18:00 +34°C° 0 mm 5 m/s 758 mmHg 34%
    19:00 +33°C° 0 mm 4 m/s 759 mmHg 43%
    20:00 +30°C° 0 mm 4 m/s 759 mmHg 51%
    21:00 +29°C° 0 mm 4 m/s 760 mmHg 60%
    22:00 +28°C° 0 mm 4 m/s 760 mmHg 65%
    23:00 +27°C° 0 mm 4 m/s 760 mmHg 70%
    Arată mai mult